Location: Central Coast
(33.3208°S, 151.2336°E)
Time: 00:57:34
(UTC+11:00)

Envisat - Pass Details

Date: 09 October 2017
Orbit: 764 x 766 km, 98.2° (Epoch: 21 October)

Event Time Altitude Azimuth Distance (km) Brightness Sun altitude
Rises 21:14:18 0° 164° (SSE) 3,266 6.4 -26.7°
Reaches altitude 10° 21:16:39 10° 161° (SSE) 2,332 5.6 -27.2°
Enters shadow 21:19:10 29° 153° (SSE) 1,392 4.3 -27.6°
